Retour au catalogue

COSMOS 1823 DEB

ActifLEO
NORAD 18742·DEBRIS·🇷🇺 Russia

Lancé Feb 20, 1987 depuis Plesetsk Cosmodrome

Loading…

Prochains Passages (prochaines 24 heures)

TLE

FraisSource: Space-Track

Époque: Sep 14, 2026, 12:39 UTC

1 18742U 87020V   26257.52722750  .00000181  00000-0  11531-2 0  9994
2 18742  73.5151  93.9853 0056550  13.4638  15.0451 12.59378988773080

Suivez COSMOS 1823 DEB en temps réel avec AllMySat

Download on the App Store